User: anonymous   Login
Location: La Vergne
(36.0160°N, 86.5820°W)
Time: 04:14:20
(UTC-06:00)
Language:

Cosmos 1703 Rocket - Orbit

View from above orbital plane
View from above orbital plane
View from above satellite
View from above satellite

Ground track
Ground track

The orbit data is extracted from the following two-line orbital elements,

1 16263U 85108B   16337.95837731 +.00000107 +00000-0 +10298-4 0  9995
2 16263 082.5031 298.3922 0018539 275.0938 141.4788 14.82958633654225
Epoch (UTC): 02 December 2016 23:00:03
Eccentricity: 0.0018539
inclination: 82.5031°
perigee height: 607 km
apogee height: 633 km
right ascension of ascending node: 298.3922°
argument of perigee: 275.0938°
revolutions per day: 14.82958633
mean anomaly at epoch: 141.4788°
orbit number at epoch: 65422

The dashed part of the orbit path shows where the satellite is in the earth's shadow,  

DLR